Погода в Паратунке

Россия / Камчатский край     52°57′44″N   158°15′15″E
темп.,
°C
ветер,
м/с
пор.,
м/с
влажн.,
%
обл.,
%
осадки,
мм/ч
давл.,
гПа
погр.,
м
2 декабря, чт
чт200:00−6ссз1195100 4.9 101866
03:00−4с2296100 0.7 101274
06:00−3ссв1198100 2.9 100553
09:00−1с1299100 9.9 99957
12:00+1в12100100 16.2 99357
15:00+2зюз12100100 5.3 98640
18:00+1юз2299100 5.7 98429
21:00−2ююз338314 0.1 98324
3 декабря, пт
пт300:00−2юз478752 0.9 983190
03:00−5зюз10197584 0.6 988819
06:00−4зюз15257886 1.2 9921736
09:00−4зюз20297716 0.5 9981374
12:00−3зюз20277815 1.4 10051283
15:00−2зюз1322768 0.2 10101294
18:00−2зюз4128015 0.6 1013466
21:00−6зюз229129 0.3 101520
4 декабря, сб
сб400:00−4ююз229450 0.6 101635
03:00−4зюз229155 0.1 101722
06:00−5зюз2288100 0.1 101715
09:00−3юз1187100 0.0 101516
12:000вюв1186100 0.0 101363
15:00−1вюв119496 0.0 100937
18:00−3сз119884 0.1 100718
21:00−1сз1199100 1.1 100224
5 декабря, вс
вс500:00−1зсз229883 3.0 99949
03:00+1зсз229282 0.1 99741
06:00−1з468210 0.1 998115
09:00−5зюз698291 0.1 999140
12:00−4з1217755 0.1 1002962
15:00−5з1217766 0.0 10031001
18:00−7з9167716 0.1 1004524
21:00−8з7137829 0.1 1006346
6 декабря, пн
пн600:00−9з498951 0.2 1007254
03:00−8з5108393 0.1 1008250
06:00−7з11187712 0.4 1009645
09:00−5з11187723 0.1 1011715
12:00−4з12187618 0.1 10121122
15:00−3з13197612 0.1 10131136
18:00−8з458412 0.1 1015132
21:00−8з338715 0.0 101628